一网星座-0231星 (ONEWEB-0231 )

导读 | 星芒AI

ONEWEB-0231 是 OneWeb 卫星通信公司发射的低轨通信卫星之一,属于其全球宽带互联网星座计划。该卫星运行在约 1200 公里的近地轨道,旨在为全球用户提供高速、低延迟的互联网接入服务,尤其关注航空、航海及偏远地区用户。ONEWEB-0231 采用先进通信技术,支持 Ku 和 Ka 频段,具备高容量和高可靠性,助力实现 OneWeb 的全球覆盖目标。

基本信息
目录编号:
48782
目录名称:
ONEWEB-0231
国际标识:
2021-045R
轨道中心:
EARTH
卫星名称:
一网星座-0231星
卫星全名:
一网星座-0231星 (ONEWEB-0231 )
卫星状态:
在轨 (已飞行1662 天)
发射日期:
2021-05-28 UTC
国别 :
英国 (GB)
星等 :
--
轨道信息
数据来源 国际轨道数据 AOE轨道数据
星历时间 2025-12-15T05:54:18+0800
21小时前
查看轨道信息
2025-12-11T14:00:00+0800
4天前
查看轨道信息
半长轴 7579.908km 7579.912km
偏心率 0.0002083 0.0002044
轨道倾角 87.899° 87.898°
近地点辐角 73.801° 78.320°
升交点赤经 295.973° 296.705°
平近点角 286.335° 225.226°
近地点 1200.194km 1200.227km
远地点 1203.352km 1203.327km
周期 109.460分钟 109.460分钟
每日圈数 13.155487 13.155477
详细信息
平衡模式:
三轴稳定
覆盖范围:
全球
运营商:
一网卫星公司
运营商所在国:
英国
制造商(研发单位):
一网卫星公司
制造商所在国:
英国
使用方式:
暂无
卫星简介
OneWeb卫星网络由648颗重约125公斤的微型卫星组成,运行在1200公里的轨道上。 每颗卫星都能够提供至少每秒8千兆位的吞吐量,以使用其高吞吐量的Ku频段有效载荷为家庭和移动平台提供互联网接入。该卫星仍在工作。
2D轨道图
3D轨道图
轨道高度分析图
轨道倾角分析图
轨道综合分析图
查看轨道综合分析图